User: anonymous   Login
Location: Unspecified
(0.0000°N, 0.0000°E)
Time: 20:54:07
(UTC+00:00)
Language:

USA 250 - Orbit

View from above orbital plane
View from above orbital plane
View from above satellite
View from above satellite

Ground track
Ground track

The orbit data is extracted from the following two-line orbital elements,

1 39652U 14020A   18076.18659366 0.00000000  00000-0  00000-0 0    01
2 39652   2.3284 323.8535 0003452   0.5287 359.5014  1.00270000    08
Epoch (UTC): 17 March 2018 04:28:41
Eccentricity: 0.0003452
inclination: 2.3284°
perigee height: 35772 km
apogee height: 35801 km
right ascension of ascending node: 323.8535°
argument of perigee: 0.5287°
revolutions per day: 1.00270000
mean anomaly at epoch: 359.5014°
orbit number at epoch: 0

The dashed part of the orbit path shows where the satellite is in the earth's shadow,  

DLR